Retour au catalogue

SL-14 DEB

ActifPO
NORAD 46466·DEBRIS·🇷🇺 Russia

Lancé Aug 15, 1991 depuis Plesetsk Cosmodrome

Loading…

Prochains Passages (prochaines 24 heures)

TLE

FraisSource: Space-Track

Époque: Sep 13, 2026, 11:24 UTC

1 46466U 91056DB  26256.47518279  .00000721  00000-0  16905-2 0  9994
2 46466  82.5653  71.0731 0008721 187.9538 172.1451 13.22791358294394

Suivez SL-14 DEB en temps réel avec AllMySat

Download on the App Store